Back to catalog

STARLINK-3834

AliveCommunicationsVLEO
NORAD 52368·PAYLOAD·🇺🇸 United States

Launched Apr 29, 2022 from Cape Canaveral Space Force Station

Loading…

Next Passes (next 24 hours)

TLE

FreshSource: CelesTrak SupGP

Epoch: Sep 14, 2026, 20:52 UTC

1 52368C 22045AP  26257.86993056  .00051489  00000+0  15218-2 0  2577
2 52368  53.1598  51.6936 0001228  77.8961 145.8874 15.34353210    13

Track STARLINK-3834 in real time with AllMySat

Download on the App Store